ONEWEB-0049 (45154 NORAD) Tracking and Keplerian Element Data

This shows tracking and keplerian element data for the satellite.

Feedback or suggestion? Click here.




ElementValue
Catalog45154
NameONEWEB-0049
Epoch Orbit827
Epoch Day87.19389073
Epoch Year2020
RAAN147.6534
Inclination87.4463
Eccentricity0.0023813
Argument of Perigee117.9429
Mean Anonmoly242.4213
Mean Motion14.88937344
Decay Rate-0.00285883
L11 45154U 20008Z 20087.19389073 -.00285883 00000-0 -31568-1 0 9996
L22 45154 87.4463 147.6534 0023813 117.9429 242.4213 14.88937344 8279

Live tracking and technical data element details for ONEWEB-0049 (NORAD 45154). ONEWEB-0049 can be tracked NOW for your location showing map with azimuth and elevation plus other details from your city location.

Track the satellite on the map from your city or location and see movement details for azimuth, elevation, latitude, longitude, range, height, and movement on the map or in text.







IsCatalogInMostPopularTable: catalog: 45154, numindb: 9
Update: records affected: 1



GetName: 45154 ONEWEB-0049

Hit Count: updated at: Tue, 31 Mar 2020 13:07:25 GMT